Year,Month,Day,Hour,Minute,Value (Times are PST for temperature in C)
2017,06,27,00,00,14.10
2017,06,27,00,01,14.10
2017,06,27,00,02,14.10
2017,06,27,00,03,14.10
2017,06,27,00,04,14.10
2017,06,27,00,05,14.10
2017,06,27,00,06,14.10
2017,06,27,00,07,14.10
2017,06,27,00,08,14.10
2017,06,27,00,09,14.10
2017,06,27,00,10,14.10
2017,06,27,00,11,14.10
2017,06,27,00,12,14.20
2017,06,27,00,13,14.20
2017,06,27,00,14,14.20
2017,06,27,00,15,14.20
2017,06,27,00,16,14.20
2017,06,27,00,17,14.20
2017,06,27,00,18,14.20
2017,06,27,00,19,14.20
2017,06,27,00,20,14.20
2017,06,27,00,21,14.20
2017,06,27,00,22,14.20
2017,06,27,00,23,14.20
2017,06,27,00,24,14.20
2017,06,27,00,25,14.20
2017,06,27,00,26,14.20
2017,06,27,00,27,14.30
2017,06,27,00,28,14.30
2017,06,27,00,29,14.30
2017,06,27,00,30,14.30
2017,06,27,00,31,14.30
2017,06,27,00,32,14.30
2017,06,27,00,33,14.30
2017,06,27,00,34,14.30
2017,06,27,00,35,14.30
2017,06,27,00,36,14.20
2017,06,27,00,37,14.20
2017,06,27,00,38,14.20
2017,06,27,00,39,14.20
2017,06,27,00,40,14.20
2017,06,27,00,41,14.20
2017,06,27,00,42,14.20
2017,06,27,00,43,14.10
2017,06,27,00,44,14.10
2017,06,27,00,45,14.10
2017,06,27,00,46,14.10
2017,06,27,00,47,14.10
2017,06,27,00,48,14.10
2017,06,27,00,49,14.10
2017,06,27,00,50,14.00
2017,06,27,00,51,14.00
2017,06,27,00,52,14.00
2017,06,27,00,53,14.00
2017,06,27,00,54,14.00
2017,06,27,00,55,14.00
2017,06,27,00,56,13.90
2017,06,27,00,57,13.90
2017,06,27,00,58,13.90
2017,06,27,00,59,13.90
2017,06,27,01,00,13.90
2017,06,27,01,01,13.90
2017,06,27,01,02,13.90
2017,06,27,01,03,13.90
2017,06,27,01,04,13.90
2017,06,27,01,05,13.80
2017,06,27,01,06,13.80
2017,06,27,01,07,13.80
2017,06,27,01,08,13.80
2017,06,27,01,09,13.80
2017,06,27,01,10,13.80
2017,06,27,01,11,13.80
2017,06,27,01,12,13.80
2017,06,27,01,13,13.80
2017,06,27,01,14,13.80
2017,06,27,01,15,13.80
2017,06,27,01,16,13.80
2017,06,27,01,17,13.80
2017,06,27,01,18,13.80
2017,06,27,01,19,13.70
2017,06,27,01,20,13.70
2017,06,27,01,21,13.70
2017,06,27,01,22,13.70
2017,06,27,01,23,13.70
2017,06,27,01,24,13.60
2017,06,27,01,25,13.60
2017,06,27,01,26,13.50
2017,06,27,01,27,13.40
2017,06,27,01,28,13.30
2017,06,27,01,29,13.30
2017,06,27,01,30,13.30
2017,06,27,01,31,13.20
2017,06,27,01,32,13.20
2017,06,27,01,33,13.10
2017,06,27,01,34,13.10
2017,06,27,01,35,13.10
2017,06,27,01,36,13.10
2017,06,27,01,37,13.00
2017,06,27,01,38,13.00
2017,06,27,01,39,13.00
2017,06,27,01,40,13.00
2017,06,27,01,41,13.00
2017,06,27,01,42,13.00
2017,06,27,01,43,13.00
2017,06,27,01,44,13.10
2017,06,27,01,45,13.10
2017,06,27,01,46,13.10
2017,06,27,01,47,13.10
2017,06,27,01,48,13.10
2017,06,27,01,49,13.10
2017,06,27,01,50,13.10
2017,06,27,01,51,13.10
2017,06,27,01,52,13.10
2017,06,27,01,53,13.10
2017,06,27,01,54,13.10
2017,06,27,01,55,13.10
2017,06,27,01,56,13.20
2017,06,27,01,57,13.20
2017,06,27,01,58,13.20
2017,06,27,01,59,13.20
2017,06,27,02,00,13.20
2017,06,27,02,01,13.20
2017,06,27,02,02,13.30
2017,06,27,02,03,13.30
2017,06,27,02,04,13.30
2017,06,27,02,05,13.30
2017,06,27,02,06,13.30
2017,06,27,02,07,13.30
2017,06,27,02,08,13.20
2017,06,27,02,09,13.20
2017,06,27,02,10,13.20
2017,06,27,02,11,13.20
2017,06,27,02,12,13.20
2017,06,27,02,13,13.20
2017,06,27,02,14,13.20
2017,06,27,02,15,13.20
2017,06,27,02,16,13.10
2017,06,27,02,17,13.10
2017,06,27,02,18,13.00
2017,06,27,02,19,12.90
2017,06,27,02,20,12.80
2017,06,27,02,21,12.80
2017,06,27,02,22,12.80
2017,06,27,02,23,12.70
2017,06,27,02,24,12.70
2017,06,27,02,25,12.60
2017,06,27,02,26,12.50
2017,06,27,02,27,12.40
2017,06,27,02,28,12.40
2017,06,27,02,29,12.30
2017,06,27,02,30,12.30
2017,06,27,02,31,12.30
2017,06,27,02,32,12.20
2017,06,27,02,33,12.20
2017,06,27,02,34,12.10
2017,06,27,02,35,12.00
2017,06,27,02,36,11.90
2017,06,27,02,37,11.80
2017,06,27,02,38,11.80
2017,06,27,02,39,11.80
2017,06,27,02,40,11.70
2017,06,27,02,41,11.60
2017,06,27,02,42,11.60
2017,06,27,02,43,11.60
2017,06,27,02,44,11.60
2017,06,27,02,45,11.60
2017,06,27,02,46,11.60
2017,06,27,02,47,11.50
2017,06,27,02,48,11.40
2017,06,27,02,49,11.40
2017,06,27,02,50,11.40
2017,06,27,02,51,11.40
2017,06,27,02,52,11.40
2017,06,27,02,53,11.40
2017,06,27,02,54,11.40
2017,06,27,02,55,11.40
2017,06,27,02,56,11.40
2017,06,27,02,57,11.40
2017,06,27,02,58,11.40
2017,06,27,02,59,11.40
2017,06,27,03,00,11.40
2017,06,27,03,01,11.40
2017,06,27,03,02,11.40
2017,06,27,03,03,11.40
2017,06,27,03,04,11.40
2017,06,27,03,05,11.40
2017,06,27,03,06,11.40
2017,06,27,03,07,11.40
2017,06,27,03,08,11.60
2017,06,27,03,09,11.60
2017,06,27,03,10,11.60
2017,06,27,03,11,11.60
2017,06,27,03,12,11.60
2017,06,27,03,13,11.60
2017,06,27,03,14,11.60
2017,06,27,03,15,11.60
2017,06,27,03,16,11.70
2017,06,27,03,17,11.70
2017,06,27,03,18,11.70
2017,06,27,03,19,11.70
2017,06,27,03,20,11.80
2017,06,27,03,21,11.80
2017,06,27,03,22,11.80
2017,06,27,03,23,11.70
2017,06,27,03,24,11.70
2017,06,27,03,25,11.70
2017,06,27,03,26,11.70
2017,06,27,03,27,11.70
2017,06,27,03,28,11.70
2017,06,27,03,29,11.70
2017,06,27,03,30,11.70
2017,06,27,03,31,11.70
2017,06,27,03,32,11.70
2017,06,27,03,33,11.70
2017,06,27,03,34,11.70
2017,06,27,03,35,11.70
2017,06,27,03,36,11.70
2017,06,27,03,37,11.80
2017,06,27,03,38,11.80
2017,06,27,03,39,11.80
2017,06,27,03,40,11.80
2017,06,27,03,41,11.80
2017,06,27,03,42,11.80
2017,06,27,03,43,11.80
2017,06,27,03,44,11.90
2017,06,27,03,45,11.90
2017,06,27,03,46,11.90
2017,06,27,03,47,11.90
2017,06,27,03,48,11.90
2017,06,27,03,49,11.90
2017,06,27,03,50,11.90
2017,06,27,03,51,11.90
2017,06,27,03,52,11.90
2017,06,27,03,53,11.90
2017,06,27,03,54,11.90
2017,06,27,03,55,11.90
2017,06,27,03,56,11.90
2017,06,27,03,57,11.90
2017,06,27,03,58,12.00
2017,06,27,03,59,12.00
2017,06,27,04,00,12.00
2017,06,27,04,01,12.00
2017,06,27,04,02,11.90
2017,06,27,04,03,11.90
2017,06,27,04,04,11.90
2017,06,27,04,05,11.90
2017,06,27,04,06,11.90
2017,06,27,04,07,11.90
2017,06,27,04,08,11.90
2017,06,27,04,09,11.90
2017,06,27,04,10,11.90
2017,06,27,04,11,11.90
2017,06,27,04,12,11.90
2017,06,27,04,13,11.90
2017,06,27,04,14,11.90
2017,06,27,04,15,11.90
2017,06,27,04,16,11.90
2017,06,27,04,17,11.80
2017,06,27,04,18,11.80
2017,06,27,04,19,11.80
2017,06,27,04,20,11.80
2017,06,27,04,21,11.80
2017,06,27,04,22,11.80
2017,06,27,04,23,11.80
2017,06,27,04,24,11.80
2017,06,27,04,25,11.80
2017,06,27,04,26,11.80
2017,06,27,04,27,11.80
2017,06,27,04,28,11.80
2017,06,27,04,29,11.80
2017,06,27,04,30,11.80
2017,06,27,04,31,11.80
2017,06,27,04,32,11.80
2017,06,27,04,33,11.80
2017,06,27,04,34,11.80
2017,06,27,04,35,11.90
2017,06,27,04,36,11.90
2017,06,27,04,37,11.90
2017,06,27,04,38,11.90
2017,06,27,04,39,11.90
2017,06,27,04,40,12.00
2017,06,27,04,41,12.00
2017,06,27,04,42,12.00
2017,06,27,04,43,12.00
2017,06,27,04,44,12.00
2017,06,27,04,45,12.00
2017,06,27,04,46,12.00
2017,06,27,04,47,12.00
2017,06,27,04,48,12.10
2017,06,27,04,49,12.10
2017,06,27,04,50,12.10
2017,06,27,04,51,12.10
2017,06,27,04,52,12.10
2017,06,27,04,53,12.10
2017,06,27,04,54,12.10
2017,06,27,04,55,12.10
2017,06,27,04,56,12.10
2017,06,27,04,57,12.10
2017,06,27,04,58,12.20
2017,06,27,04,59,12.20
2017,06,27,05,00,12.10
2017,06,27,05,01,12.10
2017,06,27,05,02,12.10
2017,06,27,05,03,12.10
2017,06,27,05,04,12.00
2017,06,27,05,05,12.00
2017,06,27,05,06,11.90
2017,06,27,05,07,11.90
2017,06,27,05,08,11.90
2017,06,27,05,09,11.80
2017,06,27,05,10,11.80
2017,06,27,05,11,11.80
2017,06,27,05,12,11.70
2017,06,27,05,13,11.60
2017,06,27,05,14,11.60
2017,06,27,05,15,11.60
2017,06,27,05,16,11.40
2017,06,27,05,17,11.40
2017,06,27,05,18,11.40
2017,06,27,05,19,11.30
2017,06,27,05,20,11.30
2017,06,27,05,21,11.20
2017,06,27,05,22,11.20
2017,06,27,05,23,11.20
2017,06,27,05,24,11.10
2017,06,27,05,25,11.10
2017,06,27,05,26,11.10
2017,06,27,05,27,11.10
2017,06,27,05,28,11.10
2017,06,27,05,29,11.00
2017,06,27,05,30,10.90
2017,06,27,05,31,10.90
2017,06,27,05,32,10.90
2017,06,27,05,33,10.90
2017,06,27,05,34,10.90
2017,06,27,05,35,10.90
2017,06,27,05,36,10.90
2017,06,27,05,37,10.90
2017,06,27,05,38,10.90
2017,06,27,05,39,10.90
2017,06,27,05,40,10.90
2017,06,27,05,41,10.90
2017,06,27,05,42,10.90
2017,06,27,05,43,10.80
2017,06,27,05,44,10.80
2017,06,27,05,45,10.80
2017,06,27,05,46,10.70
2017,06,27,05,47,10.70
2017,06,27,05,48,10.70
2017,06,27,05,49,10.70
2017,06,27,05,50,10.70
2017,06,27,05,51,10.70
2017,06,27,05,52,10.70
2017,06,27,05,53,10.70
2017,06,27,05,54,10.70
2017,06,27,05,55,10.70
2017,06,27,05,56,10.70
2017,06,27,05,57,10.70
2017,06,27,05,58,10.80
2017,06,27,05,59,10.80
2017,06,27,06,00,10.90
2017,06,27,06,01,10.90
2017,06,27,06,02,10.90
2017,06,27,06,03,10.90
2017,06,27,06,04,10.90
2017,06,27,06,05,10.90
2017,06,27,06,06,10.90
2017,06,27,06,07,10.90
2017,06,27,06,08,10.90
2017,06,27,06,09,10.90
2017,06,27,06,10,10.90
2017,06,27,06,11,10.90
2017,06,27,06,12,11.10
2017,06,27,06,13,11.10
2017,06,27,06,14,11.10
2017,06,27,06,15,11.20
2017,06,27,06,16,11.30
2017,06,27,06,17,11.30
2017,06,27,06,18,11.40
2017,06,27,06,19,11.50
2017,06,27,06,20,11.60
2017,06,27,06,21,11.70
2017,06,27,06,22,11.80
2017,06,27,06,23,11.80
2017,06,27,06,24,11.80
2017,06,27,06,25,11.80
2017,06,27,06,26,11.80
2017,06,27,06,27,11.90
2017,06,27,06,28,11.90
2017,06,27,06,29,11.90
2017,06,27,06,30,11.90
2017,06,27,06,31,11.90
2017,06,27,06,32,12.00
2017,06,27,06,33,12.00
2017,06,27,06,34,12.10
2017,06,27,06,35,12.10
2017,06,27,06,36,12.10
2017,06,27,06,37,12.10
2017,06,27,06,38,12.20
2017,06,27,06,39,12.20
2017,06,27,06,40,12.20
2017,06,27,06,41,12.20
2017,06,27,06,42,12.10
2017,06,27,06,43,12.10
2017,06,27,06,44,12.00
2017,06,27,06,45,12.00
2017,06,27,06,46,12.00
2017,06,27,06,47,12.00
2017,06,27,06,48,12.00
2017,06,27,06,49,12.00
2017,06,27,06,50,12.10
2017,06,27,06,51,12.10
2017,06,27,06,52,12.20
2017,06,27,06,53,12.20
2017,06,27,06,54,12.20
2017,06,27,06,55,12.30
2017,06,27,06,56,12.30
2017,06,27,06,57,12.30
2017,06,27,06,58,12.30
2017,06,27,06,59,12.30
2017,06,27,07,00,12.30
2017,06,27,07,01,12.40
2017,06,27,07,02,12.40
2017,06,27,07,03,12.50
2017,06,27,07,04,12.50
2017,06,27,07,05,12.60
2017,06,27,07,06,12.70
2017,06,27,07,07,12.80
2017,06,27,07,08,12.90
2017,06,27,07,09,13.00
2017,06,27,07,10,13.10
2017,06,27,07,11,13.10
2017,06,27,07,12,13.00
2017,06,27,07,13,13.00
2017,06,27,07,14,12.90
2017,06,27,07,15,12.90
2017,06,27,07,16,13.00
2017,06,27,07,17,13.00
2017,06,27,07,18,13.10
2017,06,27,07,19,13.10
2017,06,27,07,20,13.00
2017,06,27,07,21,12.90
2017,06,27,07,22,12.80
2017,06,27,07,23,12.70
2017,06,27,07,24,12.70
2017,06,27,07,25,12.60
2017,06,27,07,26,12.70
2017,06,27,07,27,12.70
2017,06,27,07,28,12.70
2017,06,27,07,29,12.70
2017,06,27,07,30,12.70
2017,06,27,07,31,12.80
2017,06,27,07,32,12.70
2017,06,27,07,33,12.80
2017,06,27,07,34,12.80
2017,06,27,07,35,12.70
2017,06,27,07,36,12.70
2017,06,27,07,37,12.70
2017,06,27,07,38,12.70
2017,06,27,07,39,12.80
2017,06,27,07,40,12.80
2017,06,27,07,41,12.80
2017,06,27,07,42,12.80
2017,06,27,07,43,12.90
2017,06,27,07,44,13.00
2017,06,27,07,45,13.10
2017,06,27,07,46,13.20
2017,06,27,07,47,13.30
2017,06,27,07,48,13.40
2017,06,27,07,49,13.50
2017,06,27,07,50,13.50
2017,06,27,07,51,13.50
2017,06,27,07,52,13.30
2017,06,27,07,53,13.30
2017,06,27,07,54,13.20
2017,06,27,07,55,13.20
2017,06,27,07,56,13.10
2017,06,27,07,57,13.10
2017,06,27,07,58,13.10
2017,06,27,07,59,13.20
2017,06,27,08,00,13.20
2017,06,27,08,01,13.30
2017,06,27,08,02,13.30
2017,06,27,08,03,13.20
2017,06,27,08,04,13.10
2017,06,27,08,05,13.10
2017,06,27,08,06,13.20
2017,06,27,08,07,13.20
2017,06,27,08,08,13.10
2017,06,27,08,09,13.10
2017,06,27,08,10,12.90
2017,06,27,08,11,12.80
2017,06,27,08,12,12.80
2017,06,27,08,13,12.80
2017,06,27,08,14,12.80
2017,06,27,08,15,12.70
2017,06,27,08,16,12.70
2017,06,27,08,17,12.60
2017,06,27,08,18,12.50
2017,06,27,08,19,12.50
2017,06,27,08,20,12.50
2017,06,27,08,21,12.50
2017,06,27,08,22,12.60
2017,06,27,08,23,12.80
2017,06,27,08,24,12.90
2017,06,27,08,25,12.90
2017,06,27,08,26,12.90
2017,06,27,08,27,12.90
2017,06,27,08,28,12.80
2017,06,27,08,29,12.80
2017,06,27,08,30,12.80
2017,06,27,08,31,12.80
2017,06,27,08,32,12.80
2017,06,27,08,33,12.80
2017,06,27,08,34,12.80
2017,06,27,08,35,12.90
2017,06,27,08,36,12.80
2017,06,27,08,37,12.80
2017,06,27,08,38,12.60
2017,06,27,08,39,12.50
2017,06,27,08,40,12.40
2017,06,27,08,41,12.30
2017,06,27,08,42,12.30
2017,06,27,08,43,12.30
2017,06,27,08,44,12.40
2017,06,27,08,45,12.40
2017,06,27,08,46,12.40
2017,06,27,08,47,12.50
2017,06,27,08,48,12.50
2017,06,27,08,49,12.60
2017,06,27,08,50,12.60
2017,06,27,08,51,12.70
2017,06,27,08,52,12.70
2017,06,27,08,53,12.90
2017,06,27,08,54,13.10
2017,06,27,08,55,13.10
2017,06,27,08,56,13.20
2017,06,27,08,57,13.30
2017,06,27,08,58,13.30
2017,06,27,08,59,13.50
2017,06,27,09,00,13.50
2017,06,27,09,01,13.60
2017,06,27,09,02,13.60
2017,06,27,09,03,13.60
2017,06,27,09,04,13.50
2017,06,27,09,05,13.50
2017,06,27,09,06,13.50
2017,06,27,09,07,13.50
2017,06,27,09,08,13.50
2017,06,27,09,09,13.50
2017,06,27,09,10,13.50
2017,06,27,09,11,13.50
2017,06,27,09,12,13.50
2017,06,27,09,13,13.50
2017,06,27,09,14,13.60
2017,06,27,09,15,13.60
2017,06,27,09,16,13.60
2017,06,27,09,17,13.60
2017,06,27,09,18,13.60
2017,06,27,09,19,13.60
2017,06,27,09,20,13.60
2017,06,27,09,21,13.50
2017,06,27,09,22,13.40
2017,06,27,09,23,13.50
2017,06,27,09,24,13.50
2017,06,27,09,25,13.50
2017,06,27,09,26,13.60
2017,06,27,09,27,13.60
2017,06,27,09,28,13.40
2017,06,27,09,29,13.40
2017,06,27,09,30,13.50
2017,06,27,09,31,13.60
2017,06,27,09,32,13.60
2017,06,27,09,33,13.60
2017,06,27,09,34,13.50
2017,06,27,09,35,13.30
2017,06,27,09,36,13.30
2017,06,27,09,37,13.20
2017,06,27,09,38,13.30
2017,06,27,09,39,13.30
2017,06,27,09,40,13.30
2017,06,27,09,41,13.50
2017,06,27,09,42,13.50
2017,06,27,09,43,13.60
2017,06,27,09,44,13.60
2017,06,27,09,45,13.60
2017,06,27,09,46,13.60
2017,06,27,09,47,13.70
2017,06,27,09,48,13.60
2017,06,27,09,49,13.70
2017,06,27,09,50,13.70
2017,06,27,09,51,13.70
2017,06,27,09,52,13.70
2017,06,27,09,53,13.80
2017,06,27,09,54,13.90
2017,06,27,09,55,13.90
2017,06,27,09,56,13.90
2017,06,27,09,57,14.00
2017,06,27,09,58,14.00
2017,06,27,09,59,13.80
2017,06,27,10,00,13.80
2017,06,27,10,01,13.80
2017,06,27,10,02,13.90
2017,06,27,10,03,14.10
2017,06,27,10,04,14.10
2017,06,27,10,05,14.00
2017,06,27,10,06,13.80
2017,06,27,10,07,13.70
2017,06,27,10,08,13.70
2017,06,27,10,09,13.70
2017,06,27,10,10,13.60
2017,06,27,10,11,13.60
2017,06,27,10,12,13.70
2017,06,27,10,13,13.60
2017,06,27,10,14,13.60
2017,06,27,10,15,13.70
2017,06,27,10,16,13.70
2017,06,27,10,17,13.70
2017,06,27,10,18,13.80
2017,06,27,10,19,13.80
2017,06,27,10,20,13.80
2017,06,27,10,21,13.90
2017,06,27,10,22,13.90
2017,06,27,10,23,13.80
2017,06,27,10,24,13.70
2017,06,27,10,25,13.70
2017,06,27,10,26,13.70
2017,06,27,10,27,13.70
2017,06,27,10,28,13.70
2017,06,27,10,29,13.70
2017,06,27,10,30,13.70
2017,06,27,10,31,13.70
2017,06,27,10,32,13.70
2017,06,27,10,33,13.70
2017,06,27,10,34,13.70
2017,06,27,10,35,13.70
2017,06,27,10,36,13.60
2017,06,27,10,37,13.50
2017,06,27,10,38,13.50
2017,06,27,10,39,13.50
2017,06,27,10,40,13.40
2017,06,27,10,41,13.30
2017,06,27,10,42,13.30
2017,06,27,10,43,13.30
2017,06,27,10,44,13.30
2017,06,27,10,45,13.40
2017,06,27,10,46,13.50
2017,06,27,10,47,13.60
2017,06,27,10,48,13.70
2017,06,27,10,49,13.80
2017,06,27,10,50,13.90
2017,06,27,10,51,13.80
2017,06,27,10,52,13.80
2017,06,27,10,53,13.70
2017,06,27,10,54,13.70
2017,06,27,10,55,13.70
2017,06,27,10,56,13.60
2017,06,27,10,57,13.60
2017,06,27,10,58,13.70
2017,06,27,10,59,13.70
2017,06,27,11,00,13.70
2017,06,27,11,01,13.70
2017,06,27,11,02,13.60
2017,06,27,11,03,13.60
2017,06,27,11,04,13.50
2017,06,27,11,05,13.50
2017,06,27,11,06,13.50
2017,06,27,11,07,13.50
2017,06,27,11,08,13.60
2017,06,27,11,09,13.70
2017,06,27,11,10,13.70
2017,06,27,11,11,13.70
2017,06,27,11,12,13.50
2017,06,27,11,13,13.40
2017,06,27,11,14,13.30
2017,06,27,11,15,13.30
2017,06,27,11,16,13.30
2017,06,27,11,17,13.30
2017,06,27,11,18,13.50
2017,06,27,11,19,13.60
2017,06,27,11,20,13.60
2017,06,27,11,21,13.70
2017,06,27,11,22,13.80
2017,06,27,11,23,13.90
2017,06,27,11,24,13.90
2017,06,27,11,25,13.80
2017,06,27,11,26,13.80
2017,06,27,11,27,13.70
2017,06,27,11,28,13.70
2017,06,27,11,29,13.70
2017,06,27,11,30,13.70
2017,06,27,11,31,13.80
2017,06,27,11,32,13.90
2017,06,27,11,33,14.00
2017,06,27,11,34,14.00
2017,06,27,11,35,13.90
2017,06,27,11,36,13.90
2017,06,27,11,37,13.80
2017,06,27,11,38,13.80
2017,06,27,11,39,13.70
2017,06,27,11,40,13.80
2017,06,27,11,41,14.00
2017,06,27,11,42,14.10
2017,06,27,11,43,14.10
2017,06,27,11,44,14.10
2017,06,27,11,45,14.20
2017,06,27,11,46,14.20
2017,06,27,11,47,14.30
2017,06,27,11,48,14.40
2017,06,27,11,49,14.50
2017,06,27,11,50,14.60
2017,06,27,11,51,14.70
2017,06,27,11,52,14.80
2017,06,27,11,53,14.80
2017,06,27,11,54,14.80
2017,06,27,11,55,14.80
2017,06,27,11,56,14.80
2017,06,27,11,57,14.90
2017,06,27,11,58,15.00
2017,06,27,11,59,15.00
2017,06,27,12,00,14.90
2017,06,27,12,01,14.80
2017,06,27,12,02,14.70
2017,06,27,12,03,14.50
2017,06,27,12,04,14.40
2017,06,27,12,05,14.40
2017,06,27,12,06,14.40
2017,06,27,12,07,14.40
2017,06,27,12,08,14.50
2017,06,27,12,09,14.60
2017,06,27,12,10,14.80
2017,06,27,12,11,14.90
2017,06,27,12,12,15.00
2017,06,27,12,13,14.90
2017,06,27,12,14,14.70
2017,06,27,12,15,14.60
2017,06,27,12,16,14.40
2017,06,27,12,17,14.40
2017,06,27,12,18,14.40
2017,06,27,12,19,14.40
2017,06,27,12,20,14.40
2017,06,27,12,21,14.40
2017,06,27,12,22,14.50
2017,06,27,12,23,14.40
2017,06,27,12,24,14.50
2017,06,27,12,25,14.40
2017,06,27,12,26,14.40
2017,06,27,12,27,14.20
2017,06,27,12,28,14.20
2017,06,27,12,29,14.20
2017,06,27,12,30,14.20
2017,06,27,12,31,14.20
2017,06,27,12,32,14.40
2017,06,27,12,33,14.50
2017,06,27,12,34,14.50
2017,06,27,12,35,14.60
2017,06,27,12,36,14.60
2017,06,27,12,37,14.60
2017,06,27,12,38,14.60
2017,06,27,12,39,14.70
2017,06,27,12,40,14.80
2017,06,27,12,41,14.80
2017,06,27,12,42,14.80
2017,06,27,12,43,14.70
2017,06,27,12,44,14.60
2017,06,27,12,45,14.60
2017,06,27,12,46,14.60
2017,06,27,12,47,14.60
2017,06,27,12,48,14.70
2017,06,27,12,49,14.70
2017,06,27,12,50,14.70
2017,06,27,12,51,14.80
2017,06,27,12,52,14.80
2017,06,27,12,53,15.00
2017,06,27,12,54,15.10
2017,06,27,12,55,15.20
2017,06,27,12,56,15.10
2017,06,27,12,57,15.10
2017,06,27,12,58,15.10
2017,06,27,12,59,15.00
2017,06,27,13,00,15.00
2017,06,27,13,01,15.00
2017,06,27,13,02,15.00
2017,06,27,13,03,14.90
2017,06,27,13,04,14.70
2017,06,27,13,05,14.70
2017,06,27,13,06,14.70
2017,06,27,13,07,14.80
2017,06,27,13,08,14.70
2017,06,27,13,09,14.60
2017,06,27,13,10,14.60
2017,06,27,13,11,14.70
2017,06,27,13,12,14.80
2017,06,27,13,13,14.70
2017,06,27,13,14,14.60
2017,06,27,13,15,14.60
2017,06,27,13,16,14.60
2017,06,27,13,17,14.80
2017,06,27,13,18,15.00
2017,06,27,13,19,15.00
2017,06,27,13,20,15.00
2017,06,27,13,21,15.00
2017,06,27,13,22,14.90
2017,06,27,13,23,14.80
2017,06,27,13,24,14.90
2017,06,27,13,25,14.90
2017,06,27,13,26,14.90
2017,06,27,13,27,14.70
2017,06,27,13,28,14.70
2017,06,27,13,29,14.60
2017,06,27,13,30,14.50
2017,06,27,13,31,14.50
2017,06,27,13,32,14.50
2017,06,27,13,33,14.50
2017,06,27,13,34,14.50
2017,06,27,13,35,14.60
2017,06,27,13,36,14.60
2017,06,27,13,37,14.70
2017,06,27,13,38,14.80
2017,06,27,13,39,14.70
2017,06,27,13,40,14.80
2017,06,27,13,41,14.80
2017,06,27,13,42,14.90
2017,06,27,13,43,15.10
2017,06,27,13,44,15.10
2017,06,27,13,45,15.10
2017,06,27,13,46,15.10
2017,06,27,13,47,15.00
2017,06,27,13,48,15.00
2017,06,27,13,49,15.00
2017,06,27,13,50,15.10
2017,06,27,13,51,15.20
2017,06,27,13,52,15.10
2017,06,27,13,53,15.10
2017,06,27,13,54,15.20
2017,06,27,13,55,15.30
2017,06,27,13,56,15.40
2017,06,27,13,57,15.40
2017,06,27,13,58,15.40
2017,06,27,13,59,15.30
2017,06,27,14,00,15.30
2017,06,27,14,01,15.30
2017,06,27,14,02,15.30
2017,06,27,14,03,15.40
2017,06,27,14,04,15.50
2017,06,27,14,05,15.50
2017,06,27,14,06,15.60
2017,06,27,14,07,15.70
2017,06,27,14,08,15.70
2017,06,27,14,09,15.70
2017,06,27,14,10,15.80
2017,06,27,14,11,15.80
2017,06,27,14,12,15.80
2017,06,27,14,13,16.00
2017,06,27,14,14,16.10
2017,06,27,14,15,16.00
2017,06,27,14,16,15.80
2017,06,27,14,17,15.70
2017,06,27,14,18,15.70
2017,06,27,14,19,15.60
2017,06,27,14,20,15.60
2017,06,27,14,21,15.60
2017,06,27,14,22,15.70
2017,06,27,14,23,15.80
2017,06,27,14,24,15.80
2017,06,27,14,25,15.80
2017,06,27,14,26,15.80
2017,06,27,14,27,15.80
2017,06,27,14,28,15.90
2017,06,27,14,29,16.10
2017,06,27,14,30,16.20
2017,06,27,14,31,16.20
2017,06,27,14,32,16.30
2017,06,27,14,33,16.40
2017,06,27,14,34,16.50
2017,06,27,14,35,16.60
2017,06,27,14,36,16.70
2017,06,27,14,37,16.80
2017,06,27,14,38,16.90
2017,06,27,14,39,16.90
2017,06,27,14,40,16.90
2017,06,27,14,41,16.90
2017,06,27,14,42,16.80
2017,06,27,14,43,16.90
2017,06,27,14,44,16.90
2017,06,27,14,45,16.90
2017,06,27,14,46,16.80
2017,06,27,14,47,16.70
2017,06,27,14,48,16.70
2017,06,27,14,49,16.80
2017,06,27,14,50,16.70
2017,06,27,14,51,16.70
2017,06,27,14,52,16.70
2017,06,27,14,53,16.70
2017,06,27,14,54,16.60
2017,06,27,14,55,16.50
2017,06,27,14,56,16.40
2017,06,27,14,57,16.40
2017,06,27,14,58,16.40
2017,06,27,14,59,16.40
2017,06,27,15,00,16.40
2017,06,27,15,01,16.40
2017,06,27,15,02,16.40
2017,06,27,15,03,16.60
2017,06,27,15,04,16.60
2017,06,27,15,05,16.60
2017,06,27,15,06,16.40
2017,06,27,15,07,16.30
2017,06,27,15,08,16.20
2017,06,27,15,09,16.30
2017,06,27,15,10,16.40
2017,06,27,15,11,16.60
2017,06,27,15,12,16.60
2017,06,27,15,13,16.60
2017,06,27,15,14,16.40
2017,06,27,15,15,16.50
2017,06,27,15,16,16.60
2017,06,27,15,17,16.70
2017,06,27,15,18,16.80
2017,06,27,15,19,16.80
2017,06,27,15,20,16.90
2017,06,27,15,21,16.90
2017,06,27,15,22,17.00
2017,06,27,15,23,17.10
2017,06,27,15,24,17.20
2017,06,27,15,25,17.30
2017,06,27,15,26,17.30
2017,06,27,15,27,17.20
2017,06,27,15,28,17.10
2017,06,27,15,29,17.10
2017,06,27,15,30,17.10
2017,06,27,15,31,16.90
2017,06,27,15,32,16.90
2017,06,27,15,33,17.00
2017,06,27,15,34,17.10
2017,06,27,15,35,17.20
2017,06,27,15,36,17.30
2017,06,27,15,37,17.20
2017,06,27,15,38,17.20
2017,06,27,15,39,17.30
2017,06,27,15,40,17.40
2017,06,27,15,41,17.50
2017,06,27,15,42,17.60
2017,06,27,15,43,17.60
2017,06,27,15,44,17.70
2017,06,27,15,45,17.70
2017,06,27,15,46,17.70
2017,06,27,15,47,17.70
2017,06,27,15,48,17.70
2017,06,27,15,49,17.80
2017,06,27,15,50,17.90
2017,06,27,15,51,18.10
2017,06,27,15,52,18.20
2017,06,27,15,53,18.10
2017,06,27,15,54,18.10
2017,06,27,15,55,18.10
2017,06,27,15,56,18.10
2017,06,27,15,57,18.00
2017,06,27,15,58,17.90
2017,06,27,15,59,18.00
2017,06,27,16,00,18.10
2017,06,27,16,01,18.00
2017,06,27,16,02,17.90
2017,06,27,16,03,17.80
2017,06,27,16,04,17.80
2017,06,27,16,05,17.70
2017,06,27,16,06,17.60
2017,06,27,16,07,17.70
2017,06,27,16,08,17.80
2017,06,27,16,09,17.80
2017,06,27,16,10,17.90
2017,06,27,16,11,18.00
2017,06,27,16,12,18.10
2017,06,27,16,13,18.10
2017,06,27,16,14,18.00
2017,06,27,16,15,18.00
2017,06,27,16,16,18.10
2017,06,27,16,17,18.00
2017,06,27,16,18,17.90
2017,06,27,16,19,18.00
2017,06,27,16,20,18.10
2017,06,27,16,21,18.00
2017,06,27,16,22,17.90
2017,06,27,16,23,17.90
2017,06,27,16,24,17.90
2017,06,27,16,25,18.00
2017,06,27,16,26,18.10
2017,06,27,16,27,18.20
2017,06,27,16,28,18.30
2017,06,27,16,29,18.30
2017,06,27,16,30,18.40
2017,06,27,16,31,18.40
2017,06,27,16,32,18.40
2017,06,27,16,33,18.40
2017,06,27,16,34,18.50
2017,06,27,16,35,18.40
2017,06,27,16,36,18.40
2017,06,27,16,37,18.40
2017,06,27,16,38,18.40
2017,06,27,16,39,18.40
2017,06,27,16,40,18.50
2017,06,27,16,41,18.50
2017,06,27,16,42,18.40
2017,06,27,16,43,18.40
2017,06,27,16,44,18.30
2017,06,27,16,45,18.30
2017,06,27,16,46,18.30
2017,06,27,16,47,18.30
2017,06,27,16,48,18.40
2017,06,27,16,49,18.50
2017,06,27,16,50,18.50
2017,06,27,16,51,18.50
2017,06,27,16,52,18.60
2017,06,27,16,53,18.50
2017,06,27,16,54,18.50
2017,06,27,16,55,18.40
2017,06,27,16,56,18.40
2017,06,27,16,57,18.40
2017,06,27,16,58,18.40
2017,06,27,16,59,18.50
2017,06,27,17,00,18.50
2017,06,27,17,01,18.70
2017,06,27,17,02,18.60
2017,06,27,17,03,18.60
2017,06,27,17,04,18.60
2017,06,27,17,05,18.60
2017,06,27,17,06,18.60
2017,06,27,17,07,18.60
2017,06,27,17,08,18.60
2017,06,27,17,09,18.70
2017,06,27,17,10,18.70
2017,06,27,17,11,18.70
2017,06,27,17,12,18.80
2017,06,27,17,13,18.90
2017,06,27,17,14,19.00
2017,06,27,17,15,19.10
2017,06,27,17,16,19.20
2017,06,27,17,17,19.40
2017,06,27,17,18,19.40
2017,06,27,17,19,19.30